TimeEST,TemperatureF,Dew PointF,Humidity,Sea Level PressureIn,VisibilityMPH,Wind Direction,Wind SpeedMPH,Gust SpeedMPH,PrecipitationIn,Events,Conditions,WindDirDegrees,DateUTC
12:12 AM,64.4,64.4,100,30.28,2.0,ESE,6.9,-,N/A,,Overcast,110,2013-01-11 05:12:00
12:21 AM,64.4,64.4,100,30.28,1.8,SE,8.1,-,N/A,,Overcast,130,2013-01-11 05:21:00
12:53 AM,64.9,63.0,93,30.27,5.0,SE,6.9,-,N/A,,Overcast,130,2013-01-11 05:53:00
1:42 AM,64.4,62.6,94,30.28,5.0,SE,5.8,-,N/A,,Overcast,140,2013-01-11 06:42:00
1:53 AM,64.9,63.0,93,30.27,5.0,SE,4.6,-,N/A,,Overcast,140,2013-01-11 06:53:00
2:53 AM,64.9,63.0,93,30.25,5.0,SE,5.8,-,N/A,,Overcast,140,2013-01-11 07:53:00
3:53 AM,64.0,63.0,96,30.25,1.8,Calm,Calm,-,N/A,,Overcast,0,2013-01-11 08:53:00
4:08 AM,64.4,62.6,94,30.24,0.5,SE,3.5,-,N/A,Fog,Fog,130,2013-01-11 09:08:00
4:29 AM,64.4,62.6,94,30.23,0.2,ESE,3.5,-,N/A,Fog,Fog,120,2013-01-11 09:29:00
4:53 AM,63.0,62.1,97,30.22,0.2,ESE,4.6,-,N/A,Fog,Fog,120,2013-01-11 09:53:00
5:17 AM,62.6,62.6,100,30.23,0.5,SE,3.5,-,N/A,Fog,Fog,130,2013-01-11 10:17:00
5:51 AM,62.6,62.6,100,30.22,1.5,ESE,5.8,-,N/A,,Overcast,110,2013-01-11 10:51:00
5:53 AM,63.0,62.1,97,30.21,1.2,ESE,4.6,-,N/A,,Overcast,120,2013-01-11 10:53:00
6:16 AM,62.6,62.6,100,30.21,2.5,SE,4.6,-,N/A,,Overcast,130,2013-01-11 11:16:00
6:23 AM,62.6,62.6,100,30.21,4.0,SE,5.8,-,N/A,,Overcast,130,2013-01-11 11:23:00
7:30 AM,62.6,60.8,94,30.22,3.0,SE,4.6,-,N/A,,Scattered Clouds,130,2013-01-11 12:30:00
7:53 AM,63.0,61.0,93,30.21,4.0,SE,5.8,-,N/A,,Partly Cloudy,130,2013-01-11 12:53:00
8:53 AM,64.0,63.0,96,30.24,7.0,SSE,4.6,-,N/A,,Clear,160,2013-01-11 13:53:00
9:21 AM,66.2,64.4,94,30.25,8.0,SSE,5.8,-,N/A,,Partly Cloudy,160,2013-01-11 14:21:00
9:53 AM,70.0,64.9,84,30.25,10.0,South,6.9,-,N/A,,Clear,170,2013-01-11 14:53:00
10:53 AM,73.9,64.0,71,30.25,10.0,SSW,9.2,-,N/A,,Clear,200,2013-01-11 15:53:00
11:53 AM,75.9,63.0,64,30.23,10.0,SW,8.1,-,N/A,,Clear,220,2013-01-11 16:53:00
12:53 PM,79.0,62.1,56,30.20,10.0,South,10.4,-,N/A,,Clear,180,2013-01-11 17:53:00
1:53 PM,78.1,61.0,56,30.18,10.0,South,6.9,-,N/A,,Overcast,190,2013-01-11 18:53:00
3:53 PM,79.0,60.1,52,30.17,10.0,South,6.9,-,N/A,,Clear,190,2013-01-11 20:53:00
4:53 PM,77.0,61.0,58,30.17,10.0,SSW,3.5,-,N/A,,Clear,210,2013-01-11 21:53:00
5:53 PM,70.0,62.1,76,30.16,10.0,Calm,Calm,-,N/A,,Clear,0,2013-01-11 22:53:00
6:53 PM,66.0,61.0,84,30.17,10.0,Calm,Calm,-,N/A,,Clear,0,2013-01-11 23:53:00
7:53 PM,64.9,61.0,87,30.17,10.0,Calm,Calm,-,N/A,,Clear,0,2013-01-12 00:53:00
8:53 PM,61.0,60.1,97,30.18,6.0,Calm,Calm,-,N/A,,Clear,0,2013-01-12 01:53:00
9:53 PM,61.0,59.0,93,30.19,6.0,Calm,Calm,-,N/A,,Clear,0,2013-01-12 02:53:00
10:40 PM,60.8,57.2,88,30.19,1.8,Calm,Calm,-,N/A,,Clear,0,2013-01-12 03:40:00
10:53 PM,59.0,57.9,96,30.19,1.0,Calm,Calm,-,N/A,,Clear,0,2013-01-12 03:53:00
10:59 PM,57.2,55.4,94,30.19,3.0,Calm,Calm,-,N/A,,Clear,0,2013-01-12 03:59:00
11:07 PM,57.2,57.2,100,30.19,1.5,Calm,Calm,-,N/A,,Clear,0,2013-01-12 04:07:00
11:17 PM,57.2,55.4,94,30.19,0.8,Calm,Calm,-,N/A,,Clear,0,2013-01-12 04:17:00
11:28 PM,57.2,55.4,94,30.19,0.2,Calm,Calm,-,N/A,Fog,Fog,0,2013-01-12 04:28:00
11:41 PM,57.2,57.2,100,30.19,0.5,Calm,Calm,-,N/A,Fog,Fog,0,2013-01-12 04:41:00
11:53 PM,57.0,55.9,96,30.19,0.8,Calm,Calm,-,N/A,,Mist,0,2013-01-12 04:53:00